Flight Information

DEPARTURE
HELENA, MT
Elevation:
3877
Runways:
9/27 - 9000x150 - ASPH-G
5/23 - 4644x75 - ASPH-F
17/35 - 2989x75 - ASPH-F
10/28 - 1584x75 - TURF
ATIS:
120.4
Ground:
121.9
Tower:
HELENA TOWER 118.3
DESTINATION
,
Elevation:
TPA:
1000 (est.)


6293.9 NM74° True-16° Var57° HDG

Flight Plan:
(click to file on line)

1. Type
2. Aircraft Identification
3. Aircraft Type / Special Equipment
4. True Airspeed
kts
5. Departure Airport
(ICAO code)
6. Arriving Airport
(ICAO code)
7. Cruising Altitude
ft
8. Alternate Airport
(ICAO code)
9. Route of Flight
10. Remarks


00:00:00 Departure ATIS: Destination ATIS:

Clearance Limit:
Route:
Altitude: Expect in minutes
Frequency:
Transponder: (7500 Hijack / 7600 Lost Comms / 7700 Emergency)


KHLN 211553Z 00000KT 10SM CLR 08/00 A3043 RMK AO2 SLP323 T00830000 $
Time: 2021-09-21T15:53:00Z
1632241761
Winds: calm
Visibility: 10.0 sm
Clouds (AGL): CLR
Temperature: 8.3 C
Dew Point: 0.0 C
Pressure: 30.431103 in Hgbr


Notes:

Data extracted from FAA Digital Chart Supplement. Effective: 0901Z Thursday, AUG 12, 2021 to 0901Z Thursday, OCT 7, 2021
Current ATIS data is provided courtisy of PilotEdge.